Weather in Cachoeira Paulista

Brazil     22°40′12″S   45°00′25″W
temp.,
°C
wind,
m/s
gust,
m/s
humid.,
%
clouds,
%
prec.,
mm/h
press.,
hPa
HPBL,
m
15 april, thu
thu1500:00+16ne128490 0.0 1020193
03:00+13e11948 0.0 101928
06:00+12e119615 0.0 102012
09:00+18ne2374100 0.0 1021530
12:00+23nne225638 0.0 1018978
15:00+24ne2354100 0.0 1016933
18:00+18ene238068 0.0 101783
21:00+15ese119044 0.0 101916
16 april, fri
fri1600:00+13e11950 0.0 101914
03:00+12ene11963 0.0 101814
06:00+12ene22963 0.0 101844
09:00+19ne35700 0.0 1019495
12:00+24ne23530 0.0 1016901
15:00+25ene22510 0.0 1014968
18:00+18ene258130 0.1 1016109
21:00+16e228229 0.1 101751
17 april, sat
sat1700:00+15e228515 0.0 101750
03:00+14ene23886 0.0 101655
06:00+14ene248692 0.0 101768
09:00+20nne23645 0.0 1018401
12:00+25e125038 0.0 1015959
15:00+26sw2249100 0.0 10131150
18:00+20e117694 0.3 101412
21:00+16e119148 0.9 101513
18 april, sun
sun1800:00+15e119165 0.0 101513
03:00+15wnw009352 0.1 101511
06:00+14ene229612 0.1 101528
09:00+20ne12775 0.1 1016330
12:00+25ssw125843 0.5 1013901
15:00+23ssw237396 2.9 1012563
18:00+18ssw119035 2.3 101411
21:00+16ese1195100 2.8 101514
19 april, mon
mon1900:00+16w0098100 1.4 101637
03:00+16wsw0199100 1.4 101576
06:00+17wnw1199100 0.0 101571
09:00+18sw1292100 0.1 1017322
12:00+21nw1176100 0.4 1015656
15:00+19wsw2289100 3.9 101498
18:00+17e1192100 4.6 101517
21:00+16ne009691 4.9 101611